Flag for U.S.A. Weather past 2 weeks in Fort Collins, Colorado, U.S.A.

Now
21 °F

Clear.


Feels Like: 14 °F
Forecast: 21 / 47 °F
Wind: 6 mph from North

Location: Fort Collins-Loveland Municipal Airport

Current Time: Mar 6, 2015 at 12:49:24 AM

Latest Report: Mar 6, 2015 at 12:15 AM


Visibility: 10 mi

Pressure: 30.26 "Hg

Humidity: 68%

Dew point: 12 °F

Location of Fort CollinsLocation

Historic Weather in Fort Collins — Graph

°F

Fort Collins temperature yesterday

Maximum temperature yesterday: 37 °F (at 3:55 PM)
Minimum temperature yesterday: 3 °F (at 2:55 AM)
Average temperature yesterday: 19 °F

Past Weeks' High & Low Weather Summary

 TemperatureHumidityPressure
High64 °F (Feb 19, 3:35 PM)100% (Feb 24, 1:15 AM)30.41 "Hg (Feb 24, 1:15 AM)
Low1 °F (Feb 23, 5:35 AM)15% (Feb 19, 5:35 PM)29.55 "Hg (Mar 2, 10:55 PM)
Average22 °F74%30.06 "Hg
* Reported Feb 18 11:15 PM — Mar 5 11:35 PM, Fort Collins, Weather by CustomWeather, © 2015

Note: Actual official high and low records may vary slightly from our data, if they occured in-between our weather recording intervals... More about our weather records

Advertising

Fort Collins weather history for previous 24 hours

 ConditionsComfort  
Time TempWeatherWind HumidityBarometerVisibility
11:35 PM
Thu, Mar 5
25 °FPassing clouds.No wind63%30.26 "Hg10 mi
11:15 PM25 °FClear.No wind69%30.26 "Hg10 mi
10:55 PM25 °FClear.No wind63%30.26 "Hg10 mi
10:35 PM25 °FClear.3 mph59%30.27 "Hg10 mi
10:15 PM25 °FClear.3 mph63%30.27 "Hg10 mi
9:55 PM25 °FClear.No wind59%30.28 "Hg10 mi
9:35 PM28 °FClear.No wind59%30.28 "Hg10 mi
9:15 PM27 °FClear.No wind59%30.28 "Hg10 mi
8:35 PM28 °FClear.No wind59%30.27 "Hg10 mi
7:55 PM30 °FClear.No wind59%30.27 "Hg10 mi
7:35 PM30 °FClear.No wind59%30.27 "Hg10 mi
7:15 PM30 °FClear.No wind59%30.26 "Hg10 mi
6:55 PM28 °FClear.No wind64%30.26 "Hg10 mi
6:35 PM30 °FClear.No wind47%30.26 "Hg10 mi
6:15 PM30 °FClear.No wind47%30.26 "Hg10 mi
5:55 PM34 °FClear.No wind41%30.25 "Hg10 mi
5:35 PM34 °FSunny.No wind41%30.25 "Hg10 mi
5:15 PM34 °FSunny.No wind44%30.25 "Hg10 mi
4:55 PM34 °FSunny.No wind48%30.25 "Hg10 mi
4:35 PM34 °FSunny.No wind48%30.24 "Hg10 mi
4:15 PM34 °FSunny.No wind44%30.24 "Hg10 mi
3:55 PM37 °FSunny.No wind45%30.23 "Hg10 mi
3:35 PM34 °FSunny.No wind48%30.23 "Hg10 mi
2:55 PM32 °FSunny.No wind51%30.22 "Hg10 mi
2:35 PM34 °FSunny.No wind51%30.22 "Hg10 mi
1:55 PM32 °FSunny.3 mph55%30.22 "Hg10 mi
1:35 PM32 °FSunny.6 mph55%30.22 "Hg10 mi
1:15 PM32 °FSunny.6 mph55%30.22 "Hg10 mi
12:55 PM28 °FSunny.5 mph59%30.23 "Hg10 mi
12:35 PM28 °FSunny.5 mph55%30.23 "Hg10 mi
12:15 PM27 °FSunny.3 mph54%30.24 "Hg10 mi
11:55 AM25 °FSunny.7 mph54%30.25 "Hg10 mi
11:35 AM25 °FSunny.7 mph59%30.25 "Hg10 mi
10:55 AM21 °FSunny.5 mph68%30.24 "Hg10 mi
10:35 AM19 °FSunny.6 mph68%30.24 "Hg10 mi
10:15 AM18 °FSunny.No wind73%30.24 "Hg10 mi
9:55 AM18 °FSunny.3 mph79%30.24 "Hg10 mi
9:35 AM16 °FSunny.5 mph73%30.24 "Hg9 mi
9:15 AM14 °FSunny.5 mph79%30.24 "Hg7 mi
8:55 AM12 °FSunny.No wind92%30.23 "Hg8 mi
8:35 AM10 °FSunny.No wind92%30.22 "Hg8 mi
8:15 AM10 °FSunny.No wind85%30.21 "Hg7 mi
7:55 AM9 °FSunny.No wind92%30.21 "Hg8 mi
7:35 AM7 °FSunny.No wind92%30.20 "Hg10 mi
7:15 AM5 °FSunny.No wind85%30.19 "Hg9 mi
6:55 AM7 °FSunny.No wind78%30.19 "Hg10 mi
6:35 AM5 °FSunny.No wind85%30.18 "Hg10 mi
6:15 AM3 °FClear.3 mph92%30.19 "Hg10 mi
5:55 AM5 °FClear.No wind85%30.18 "Hg10 mi
5:35 AM3 °FClear.3 mph92%30.18 "Hg10 mi
5:15 AM3 °FClear.3 mph85%30.18 "Hg10 mi
4:55 AM3 °FClear.7 mph85%30.18 "Hg6 mi
4:35 AM3 °FClear.5 mph72%30.18 "Hg10 mi
4:15 AM7 °FClear.5 mph85%30.18 "Hg10 mi
3:55 AM7 °FClear.5 mph92%30.17 "Hg10 mi
3:35 AM7 °FClear.No wind85%30.18 "Hg10 mi
3:15 AM5 °FClear.No wind85%30.18 "Hg10 mi
2:55 AM3 °FClear.No wind85%30.19 "Hg10 mi
2:35 AM9 °FClear.5 mph78%30.19 "Hg10 mi
2:15 AM9 °FClear.5 mph78%30.20 "Hg10 mi
1:55 AM7 °FClear.6 mph85%30.20 "Hg10 mi
1:35 AM7 °FClear.7 mph78%30.20 "Hg10 mi
1:15 AM9 °FClear.6 mph78%30.21 "Hg10 mi
12:55 AM9 °FClear.6 mph78%30.21 "Hg10 mi
12:35 AM9 °FClear.6 mph78%30.21 "Hg10 mi
12:15 AM9 °FClear.5 mph72%30.21 "Hg10 mi
Weather by CustomWeather, © 2015

See weather overviewHow to use our weather pages